Location: Unspecified
(50.7693°N, 0.0000°E)
Time: 05:20:17
(UTC+00:00)

deb Explorer IX - Pass Details

Date: 19 June 2019
Orbit: 539 x 1112 km, 38.8° (Epoch: 21 July)

Event Time Altitude Azimuth Distance (km) Brightness Sun altitude
Rises 17:58:06 0° 257° (WSW) 3,921 ? 18.4°
Reaches altitude 10° 18:01:20 10° 247° (WSW) 2,932 ? 17.9°
Maximum altitude 18:07:13 28° 192° (SSW) 1,831 ? 17.0°
Drops below altitude 10° 18:12:40 10° 136° (SE) 2,685 ? 16.2°
Sets 18:15:29 0° 125° (SE) 3,538 ? 15.8°
